User: anonymous   Login
Location: Oshawa
(43.9000°N, 78.8670°W)
Time: 00:01:40
(UTC-04:00)
Language:

Thor Agena Rocket - Orbit

View from above orbital plane
View from above orbital plane
View from above satellite
View from above satellite

Ground track
Ground track

The orbit data is extracted from the following two-line orbital elements,

1 00733U 64002A   14302.80036536  .00000274  00000-0  11916-3 0  3703
2 00733 099.0218 067.4396 0035040 093.2951 074.4628 14.31935047644709
Epoch (UTC): 29 October 2014 19:12:31
Eccentricity: 0.0035040
inclination: 99.0218°
perigee height: 760 km
apogee height: 810 km
right ascension of ascending node: 67.4396°
argument of perigee: 93.2951°
revolutions per day: 14.31935047
mean anomaly at epoch: 74.4628°
orbit number at epoch: 64470

The dashed part of the orbit path shows where the satellite is in the earth's shadow,  

DLR